Total_Precipitation_Accumulation
0.05 0.06 0.11 0.11 0.12 0.12 0.15 0.18 0.23 0.27 0.23 0.25 0.43 0.65 0.71 0.87 1.16 1.49 1.86 2.11 2.45 2.80 3.15 3.58 3.66 3.89 4.21 4.82 5.31 5.59 5.69 5.64 5.42 5.15 4.80 4.62 4.64 4.63 4.37 4.12 3.96 3.83 3.70 3.75
0.09 0.08 0.06 0.07 0.10 0.11 0.15 0.19 0.23 0.27 0.23 0.24 0.45 0.69 0.84 1.11 1.43 1.49 1.68 1.84 2.04 2.47 2.80 3.14 3.32 3.39 3.81 4.42 4.88 5.09 4.92 4.95 4.82 4.62 4.57 4.55 4.83 4.55 4.26 4.09 3.94 3.61 3.57 3.67
0.09 0.09 0.05 0.05 0.07 0.09 0.13 0.14 0.18 0.26 0.26 0.33 0.51 0.94 1.12 1.28 1.41 1.43 1.52 1.69 1.81 2.10 2.41 2.75 2.89 3.02 3.26 3.38 3.67 3.89 4.11 4.14 4.09 4.11 4.08 4.19 4.44 4.29 4.16 4.02 3.91 3.51 3.32 3.30
0.06 0.06 0.06 0.07 0.07 0.09 0.12 0.11 0.12 0.18 0.29 0.48 0.63 1.28 1.49 1.40 1.44 1.53 1.51 1.48 1.72 2.04 2.07 2.18 2.41 2.57 2.85 3.03 3.24 3.34 3.45 3.62 3.70 3.82 3.74 3.61 3.52 3.53 3.56 3.63 3.58 3.55 3.37 3.26
0.07 0.06 0.06 0.08 0.08 0.07 0.09 0.09 0.11 0.22 0.36 0.50 0.60 1.02 1.47 1.70 1.75 1.53 1.44 1.32 1.52 1.68 1.63 1.59 1.77 1.93 2.21 2.46 2.69 2.84 2.99 3.15 3.41 3.54 3.48 3.46 3.25 3.26 3.35 3.41 3.43 3.42 3.34 3.25
0.07 0.07 0.06 0.06 0.06 0.07 0.07 0.12 0.21 0.39 0.60 0.86 0.72 0.89 1.38 1.68 1.90 1.64 1.37 1.27 1.38 1.35 1.32 1.46 1.62 1.75 1.91 2.21 2.39 2.51 2.67 2.78 3.00 3.16 3.26 3.35 3.32 3.23 3.20 3.18 3.18 3.16 3.17 3.07
0.14 0.13 0.11 0.07 0.07 0.08 0.09 0.20 0.63 1.06 1.38 1.35 0.88 0.92 1.32 1.30 1.30 1.35 1.28 1.29 1.31 1.24 1.19 1.23 1.34 1.49 1.67 1.92 2.11 2.18 2.31 2.42 2.50 2.61 2.82 3.01 3.01 3.02 2.86 2.78 2.84 2.84 2.65 2.57
0.18 0.26 0.16 0.10 0.10 0.11 0.13 0.22 0.70 1.12 1.18 1.16 0.97 1.24 1.62 1.31 1.19 1.12 1.18 1.26 1.24 1.11 1.09 1.16 1.24 1.27 1.37 1.59 1.85 1.93 2.04 2.15 2.29 2.35 2.48 2.63 2.65 2.65 2.49 2.57 2.58 2.51 2.27 2.20
0.12 0.13 0.09 0.09 0.10 0.14 0.20 0.23 0.32 0.62 0.72 0.89 1.07 1.39 1.62 1.29 1.21 1.32 1.40 1.37 1.31 1.06 0.95 0.99 0.98 1.01 1.06 1.19 1.38 1.52 1.76 1.93 2.04 2.13 2.25 2.30 2.27 2.35 2.33 2.43 2.55 2.39 2.33 2.18
0.08 0.09 0.08 0.08 0.10 0.15 0.19 0.20 0.27 0.53 0.79 0.98 1.06 1.47 1.81 1.71 1.50 1.41 1.47 1.32 1.06 0.91 0.82 0.77 0.75 0.77 0.85 0.97 1.13 1.35 1.52 1.56 1.68 1.90 2.06 1.99 2.21 2.29 2.29 2.32 2.23 2.21 2.26 2.23
0.07 0.07 0.08 0.11 0.13 0.16 0.21 0.25 0.34 0.51 0.58 0.84 1.21 1.45 1.39 1.39 1.29 1.32 1.29 1.12 0.91 0.81 0.78 0.74 0.73 0.77 0.81 0.87 1.05 1.27 1.52 1.66 1.66 1.76 1.94 2.04 2.11 2.22 2.25 2.17 2.06 2.10 2.18 2.20
0.08 0.08 0.13 0.18 0.19 0.19 0.19 0.22 0.32 0.50 0.50 0.56 0.87 1.17 0.82 0.85 0.85 0.93 0.97 0.85 0.82 0.81 0.76 0.80 0.85 0.82 0.84 0.95 1.12 1.32 1.50 1.68 1.76 1.93 2.19 2.32 2.22 2.19 2.22 2.15 2.02 1.92 1.88 1.97
0.13 0.14 0.22 0.43 0.51 0.32 0.21 0.20 0.23 0.29 0.32 0.38 0.71 0.95 0.64 0.72 0.84 0.93 0.99 1.00 0.99 0.93 0.77 0.79 0.98 1.03 0.97 1.05 1.25 1.49 1.66 1.82 1.96 2.12 2.34 2.43 2.28 2.17 2.19 2.11 1.92 1.80 1.73 1.80
0.13 0.17 0.24 0.50 0.58 0.44 0.32 0.26 0.22 0.26 0.34 0.34 0.41 0.64 0.64 0.72 0.89 0.98 1.01 1.01 0.93 0.89 0.86 0.89 0.98 1.02 1.17 1.24 1.36 1.57 1.64 1.81 1.91 1.91 2.08 2.23 2.15 2.00 1.91 1.90 1.86 1.84 1.83 1.80
0.11 0.14 0.16 0.20 0.27 0.33 0.35 0.30 0.24 0.21 0.24 0.37 0.38 0.48 0.60 0.74 0.76 0.95 1.00 0.94 0.90 0.89 0.92 0.96 1.05 1.05 1.07 1.15 1.16 1.26 1.30 1.50 1.52 1.58 1.67 1.76 1.71 1.71 1.67 1.64 1.59 1.64 1.70 1.67
0.22 0.21 0.19 0.18 0.21 0.25 0.28 0.29 0.23 0.17 0.15 0.19 0.32 0.57 0.60 0.65 0.71 0.86 0.86 0.85 0.91 1.01 1.04 1.06 1.14 1.25 1.13 1.07 1.03 0.99 1.07 1.26 1.43 1.55 1.48 1.50 1.55 1.48 1.44 1.48 1.46 1.51 1.58 1.70
0.39 0.36 0.34 0.29 0.24 0.30 0.36 0.30 0.25 0.18 0.17 0.18 0.37 0.64 0.65 0.69 0.80 0.92 0.97 0.98 0.91 0.91 0.98 1.08 1.17 1.21 1.04 1.01 0.99 1.02 1.06 1.18 1.30 1.40 1.48 1.55 1.59 1.55 1.49 1.54 1.63 1.62 1.76 1.82
0.47 0.52 0.46 0.41 0.49 0.63 0.42 0.30 0.28 0.31 0.28 0.28 0.35 0.44 0.52 0.68 0.74 0.79 0.85 1.01 1.06 1.06 1.13 1.17 1.14 1.14 1.11 1.07 1.09 1.10 1.09 1.17 1.30 1.34 1.44 1.56 1.60 1.56 1.59 1.58 1.59 1.70 1.87 1.93
0.37 0.55 0.58 0.55 0.65 0.57 0.48 0.41 0.39 0.46 0.52 0.44 0.52 0.51 0.57 0.67 0.73 0.91 0.84 0.89 0.91 1.07 1.12 1.15 1.14 1.16 1.20 1.20 1.28 1.27 1.21 1.26 1.39 1.51 1.60 1.57 1.63 1.69 1.76 1.80 1.82 1.88 1.92 1.93
0.47 0.61 0.76 0.70 0.84 0.86 0.74 0.64 0.56 0.60 0.94 0.71 0.69 0.71 0.81 0.86 1.01 1.23 1.07 0.97 1.01 1.10 1.07 1.09 1.05 1.12 1.22 1.24 1.39 1.50 1.51 1.51 1.58 1.75 1.87 1.89 2.00 2.12 2.11 2.20 2.30 2.30 2.27 2.21
1.00 1.00 0.91 0.91 1.04 1.05 0.82 0.71 0.69 1.18 1.41 0.91 0.81 0.86 0.87 0.92 1.05 1.11 1.17 1.19 1.13 0.97 0.91 0.95 1.03 1.04 1.14 1.34 1.56 1.73 1.76 1.71 1.80 1.95 2.12 2.28 2.39 2.59 2.71 2.80 2.73 2.64 2.62 2.61
1.17 1.28 1.26 1.28 1.47 1.40 0.88 0.83 1.20 1.50 1.20 1.18 1.03 0.97 0.97 0.91 1.00 1.10 1.16 1.18 1.03 0.98 0.93 0.97 1.09 1.10 1.16 1.36 1.57 1.76 1.84 1.89 2.08 2.22 2.40 2.53 2.73 2.83 2.96 3.33 3.38 3.37 3.27 2.98
1.31 1.39 1.40 1.45 1.56 1.29 1.10 1.26 1.37 1.36 1.35 1.40 1.41 1.23 1.14 1.06 1.08 1.13 1.09 1.02 0.94 0.94 0.92 0.98 1.13 1.26 1.31 1.44 1.69 1.97 2.03 2.09 2.23 2.39 2.60 2.76 2.84 2.99 3.13 3.29 3.30 3.29 3.23 2.96
1.49 1.26 1.43 1.61 1.69 1.48 1.41 1.40 1.44 1.47 1.40 1.38 1.46 1.59 1.58 1.32 1.18 1.20 1.15 1.05 1.04 1.10 1.06 1.10 1.23 1.39 1.57 1.70 1.90 2.16 2.22 2.35 2.43 2.49 2.63 2.73 2.84 2.97 3.15 3.30 3.24 3.17 3.10 3.05
1.50 1.55 1.76 2.04 2.00 1.82 1.67 1.68 1.78 1.68 1.56 1.59 1.59 1.64 1.71 1.41 1.19 1.15 1.23 1.20 1.20 1.29 1.33 1.33 1.40 1.53 1.75 1.91 2.07 2.16 2.22 2.42 2.61 2.60 2.65 2.75 2.78 2.82 2.94 3.03 3.14 3.06 2.98 3.01
1.53 1.77 2.08 2.31 2.09 2.17 1.99 1.69 1.75 1.86 1.72 1.73 1.69 1.63 1.50 1.40 1.33 1.35 1.37 1.36 1.36 1.46 1.49 1.49 1.50 1.62 1.80 1.97 2.17 2.27 2.40 2.55 2.70 2.76 2.68 2.72 2.76 2.78 2.79 2.77 2.67 2.68 2.61 2.56